Location: Unspecified
(44.2861°N, 0.0000°E)
Time: 19:51:49
(UTC+00:00)

Vanguard 1 Rocket - Visible Passes

Search period start: 04 April 2026 00:00
Search period end: 14 April 2026 00:00
Orbit: 654 x 4213 km, 34.3° (Epoch: 28 March)

Date Brightness Start Highest point End Pass type
(mag) Time Alt. Az. Time Alt. Az. Time Alt. Az.
4 Apr 9.7 01:20:32 42° SE 01:20:32 42° SE 01:28:35 10° E visible
4 Apr 9.0 03:37:38 27° WSW 03:44:56 49° S 03:52:31 10° ESE visible
5 Apr 10.4 00:11:31 26° ESE 00:11:31 26° ESE 00:16:11 10° E visible
5 Apr 9.3 02:28:37 46° SSW 02:31:51 52° S 02:41:01 10° ESE visible
5 Apr 8.9 04:46:12 10° W 04:57:38 40° SSW 05:04:03 10° SE visible
5 Apr 10.9 22:30:05 10° SSW 23:02:26 11° E 23:03:00 10° E visible
6 Apr 9.6 01:19:31 49° SSE 01:19:31 49° SSE 01:29:11 10° E visible
6 Apr 9.1 03:36:37 25° WSW 03:45:08 50° SSW 03:53:00 10° ESE visible
6 Apr 11.3 21:17:55 10° S 21:53:17 - E 21:23:46 17° S visible
7 Apr 10.2 00:10:21 33° ESE 00:10:21 33° ESE 00:16:51 10° E visible
7 Apr 9.3 02:27:26 44° SW 02:31:59 55° S 02:41:33 10° ESE visible
7 Apr 9.1 04:46:03 10° W 04:57:44 37° SSW 05:04:20 10° SE visible
7 Apr 11.3 20:09:10 10° SSE 20:16:51 14° SE 20:16:51 14° SE visible
7 Apr 10.8 22:27:57 10° SSW 23:01:06 18° E 23:03:51 10° E visible
8 Apr 9.6 01:18:10 54° S 01:18:11 54° S 01:29:43 10° E visible
8 Apr 9.1 03:35:14 22° WSW 03:45:16 49° SSW 03:53:25 10° SE visible
8 Apr 11.0 21:14:58 10° SSW 21:51:43 - E 21:27:35 26° SSE visible
8 Apr 10.0 23:41:10 10° SW 00:08:47 42° SE 00:17:25 10° E visible
9 Apr 9.4 02:25:50 40° WSW 02:32:05 56° S 02:42:01 10° ESE visible
9 Apr 9.3 04:45:57 10° W 04:57:42 34° SSW 05:04:29 10° SSE visible
9 Apr 11.0 20:04:22 10° S 20:19:58 20° SE 20:21:19 20° SE visible
9 Apr 10.6 22:26:13 10° SW 22:59:12 26° ESE 23:04:31 10° E visible
10 Apr 9.6 01:16:14 56° SSW 01:18:11 58° S 01:30:11 10° ESE visible
10 Apr 9.3 03:33:16 18° W 03:45:19 47° SSW 03:53:45 10° SE visible
10 Apr 11.3 19:00:19 10° SE 19:05:46 11° SE 19:11:06 10° ESE visible
10 Apr 10.6 21:12:40 10° SSW 21:49:19 13° E 21:50:41 10° E visible
10 Apr 9.9 23:40:04 10° SW 00:06:19 52° SE 00:17:54 10° E visible
11 Apr 9.4 02:23:17 33° WSW 02:32:07 56° S 02:42:26 10° ESE visible
11 Apr 9.5 04:45:54 10° W 04:57:34 30° SW 05:04:30 10° SSE visible
11 Apr 10.9 20:01:01 10° S 20:19:15 25° SE 20:28:05 20° ESE visible
11 Apr 10.3 22:24:48 10° SW 22:55:39 39° ESE 23:05:01 10° E visible
12 Apr 9.7 00:55:36 10° WSW 01:18:08 60° S 01:30:38 10° ESE visible
12 Apr 9.4 03:29:16 10° W 03:45:14 44° SSW 03:54:00 10° SE visible
12 Apr 11.3 18:52:42 10° SSE 19:04:57 16° SE 19:16:49 10° E visible
12 Apr 10.6 21:10:50 10° SSW 21:33:26 40° SSE 21:51:20 10° E visible
12 Apr 10.0 23:39:10 10° WSW 00:03:27 58° S 00:18:19 10° E visible
13 Apr 9.5 02:12:00 10° W 02:32:05 55° SSW 02:42:47 10° ESE visible
13 Apr 9.7 04:45:57 10° W 04:57:17 26° SW 05:04:19 10° S visible
13 Apr 10.9 19:58:31 10° S 20:18:28 31° SE 20:36:25 10° E visible
13 Apr 10.2 22:23:39 10° SW 22:48:14 53° SSE 23:05:25 10° E visible
